Weather in Dalekoye

Russia / Republic of Crimea     45°39′37″N   33°04′48″E
temp.,
°C
wind,
m/s
gust,
m/s
humid.,
%
clouds,
%
prec.,
mm/h
press.,
hPa
HPBL,
m
27 february, sat
sat2700:00+7sw812870 0.0 1022187
03:00+7sw811890 0.0 1021165
06:00+7sw79890 0.0 1019139
09:00+7sw79900 0.0 1018129
12:00+7wsw67910 0.0 101895
15:00+7wnw458517 0.0 101844
18:00+6n81190100 0.1 1018304
21:00+6nnw91184100 0.3 1019524
28 february, sun
sun2800:00+5nnw8978100 0.0 1020837
03:00+5nnw8985100 0.1 1020533
06:00+4nnw7892100 0.3 1021579
09:00+3nnw8997100 0.8 1021496
12:00+4nnw888089 0.3 1022782
15:00+4nw797872 0.4 1022833
18:00+4nw898179 0.0 1023780
21:00+5nnw887389 0.1 1024889
1 march, mon
mon100:00+4nnw6679100 0.1 1024659
03:00+4nw5568100 0.1 1024933
06:00+3nnw6670100 0.1 1025930
09:00+3n3468100 0.1 1025686
12:00+3nne337524 0.0 1026305
15:00+3nw117117 0.0 1027145
18:00+4nw337083 0.0 1028525
21:00+5nne457291 0.1 1030804
2 march, tue
tue200:00+4nne4471100 0.1 1030681
03:00+4nne4467100 0.2 1031638
06:00+3n337056 0.0 1030584
09:00+3nw447733 0.0 1031511
12:00+3wnw567526 0.0 1030660
15:00+4w898150 0.0 1028655
18:00+6w8117864 0.0 1026612
21:00+6w8118354 0.0 1026283
3 march, wed
wed300:00+6nw688787 0.0 1027181
03:00+5nnw568543 0.0 1027255
06:00+5nnw45850 0.0 1027210
09:00+5nw45850 0.0 1028263
12:00+5wnw45840 0.0 1027267
15:00+5w67840 0.0 1027214
18:00+6w678429 0.0 1026160
21:00+6w458314 0.0 102776